Timeline UpdatesTrip UpdatesNews PostsPvt PostsTravel TipsAdmin PostsConv PostsFollowed PostsChat RequestsBlog PostsPNR Posts

Disclaimer
Search
 
 
Tue Sep 2, 2014 22:11:40 ISTHomeTrainsΣChainsAtlasPNRForumGalleryNewsFAQTripsMembersLoginFeedback
No Recent News for this Train
Other Trains in the News **new
Latest...
Will be short terminated at Angul & will run back as 58131 Rourkela - Puri Passenger from Angul-Puri on 11/6/14 #1126575.
Sat Jun 07, 2014 (12:58PM)
⇐ Return Journey: Train# 58131

58132/Puri Rourkela Passenger (UnReserved)

OLD Time-Table. Click here to UPDATE TT
Sep 11 2013 (10:38PM)
Change Departure Station:
Change Arrival Station:
Post a Train Travel TipPost a Train Travel Tip **new
Post a Comment/Question/Picture/VideoPost a Comment/Question/Picture/Video
Pantry/Catering
✕ NO Pantry Car
✕ NO Catering
Loco/Rake Reversals
SBP/Sambalpur Junction (3);
RSA - Rake Sharing
Rake/Coach Composition
slr-gn-gn-gn-gn-gn-gn-gn-slr
Loco
News    PNR    Forum    Time-Table    Availability    Fare Chart    Map    Arr/Dep History    Trips    Gallery    ΣChains    X/O    Timeline    
Travel Time: 14h 47m    61 halts    Distance: 438 km    Avg Speed: 29 km/hr
Type: Passenger
Zone: SER/South Eastern
Departs @ 03:30
Platform# ???
SMTWTFS
Puri/PURI 
Arrives @ 18:17
Platform# ???
SMTWTFS
Panpali/PNPL 

61 halts. 70 intermediate Stations between Puri and Panpali

Show ALL intermediate Stations  

#CodeStation NameX/OArrivesAvgDepartsAvgHaltPFDay#KmSpeedElevZoneAddress
1PURI»Puri (5)»  -03:30---10.04012mECoRPuri, Odisha
2MLTMalatipatpur (1)X  03:41-03:47-6m117.33715mECoRPuri, Odisha
3JKDPJankidaipur  03:52-03:53-1m--110.46013mECoRChandanpur, Odisha
4SILSakhi Gopal (3)X  03:59-04:00-1m--116.46710mECoRPuri, Odisha
5BRSTBir Purushottampur  04:05-04:06-1m--122.03712mECoRSatasankha, Odisha
6DEGDelang  04:17-04:18-1m--128.7449mECoRKhordha, Odisha
7KASRKanas RoadX  04:23-04:24-1m--132.4429mECoRKhordha, Odisha
8MWQMotari Halt  04:29-04:30-1m--135.94612mECoRMotari, Odisha
9HPGMHaripur GramX  04:37-04:38-1m--141.3722mECoRKhordha, Odisha
10KURKhurda Road Junction (7)X  05:00-05:05-5m--143.94025mECoRKhordha, Odisha
11RTNRetang  05:16-05:17-1m--151.36019mECoRKhurdha, Odisha
12LGTRLingaraj Temple Road  05:24-05:25-1m--158.35439mECoRBhubaneswar, Odisha
13BBSBhubaneswar (4)X  05:30-05:35-5m--162.84240mECoRBhubaneshwar, Odisha
14BNBHBani Bihar (2)X  05:40-05:41-1m--166.34038mECoRBhubaneswar, Odisha
15MCSMancheswarX  05:46-05:47-1m--169.64527mECoRMancheswar, Odisha
16PTABPatia P.H.  05:51-05:52-1m--172.64430mECoRBhubaneshwar, Odisha
17BRAGBarangX  06:00-06:01-1m--178.56727mECoRDist - Cuttack, Odisha
18GBKGopalpur Balkuda  06:08-06:09-1m--186.33328mECoRGopalpur, Odisha
19KTJIKatha JoriX  06:14-06:15-1m--189.11828mECoRCuttack, Odisha
20CTCCuttack Junction (5)  06:20-06:25-5m--190.64128mECoRCuttack, Odisha
21KNPRKendrapara Road  06:31-06:32-1m--194.74029mECoRKendrapara Road, Odisha
22MACRManguli Chowdwar  06:38-06:39-1m--198.72525mECoROrissa, Odisha
23NRGNergundi  06:45-06:46-1m--1101.23326mECoRCuttack District, Odisha
24SQQSalagaon  06:53-06:54-1m--1105.07429mECoRCuttack, Odisha
25CBTCharbatia  06:58-06:59-1m--1109.94735mECoRCuttack, Odisha
26BDPGBada Padagaon  07:04-07:05-1m--1113.84831mECoRCuttack, Odisha
27GJTAGurudijhatiaX  07:11-07:12-1m--1118.65333mECoRGurudijhat, Odisha
28MZYMachapur  07:19-07:20-1m--1124.82748mECoRKapilash Rd, Odisha
29RJGRRajathagarh  07:27-07:28-1m--1127.87358mECoRRaj Athgarh, Odisha
30JRZJoranda RoadXO  07:38-07:39-1m--1140.03962mECoRDhenkanal, Odisha
31SCPRShyama Charanpur HaltX  07:44-07:45-1m--1143.32994mECoRDhenkanal, Odisha
32DNKLDhenkanal (2)  07:55-08:00-5m--1148.17559mECoRDhenkanal, Odisha
33DNDLDandi Mal  08:06-08:07-1m--1155.55671mECoRIndipur, Odisha
34SSPRSadashibapur  08:11-08:12-1m--1159.35454mECoROrissa, Odisha
35MHDBMahadia Ph  08:17-08:18-1m--1163.85766mECoRMahadia, Odisha
36HNDHindol Road  08:23-08:24-1m--1168.55664mECoROrissa, Odisha
37NBTNayabagirthipur  08:29-08:30-1m--1173.18859mECoRDhenkanal, Odisha
38MRDLMeramandolil  08:36-08:37-1m--1181.96573mECoROrissa, Odisha
39BDPKBurhapankaO  08:44-08:45-1m--1189.63279mECoROrissa, Odisha
40TLHRTalcher  09:05-09:30-25m--1200.33286mECoRSub-division Angul district, Odisha
41TLHDTalcher RoadXO  09:41-09:42-1m--1206.2673mECoRBhogabereni, Odisha
42ANGLAngul (2)  11:35-11:40-5m--1218.466120mECoRAngul District, Odisha
43KPJGKerejangaX  11:52-11:54-2m--1231.768164mECoRNational Highway 42, Odisha
44JRPDJarapadaX  12:03-12:05-2m--1241.952205mECoRNational Highway 42, Odisha
45BONABoindaX  12:23-12:25-2m--1257.441292mECoRState Highway 62, Odisha
46HNPAHandapa  12:35-12:37-2m--1264.377257mECoRNational Highway 42, Odisha
47SRGPSaragipaliX  12:48-12:50-2m--1278.373197mECoROrissa, Odisha
48BAMRBamur  12:58-13:00-2m--1288.163181mECoRBamur, Odisha
49RAIRRairakholX  13:15-13:17-2m--1303.956144mECoRSH 24, Odisha
50CHARCharmal  13:33-13:35-2m--1318.880160mECoROrissa, Odisha
51JUJAJujumura  13:48-13:50-2m--1336.170217mECoRSambalpur, Odisha
52HATBHatibari  14:00-14:02-2m--1347.946189mECoROrissa, Odisha
53MANEManeswar  14:18-14:20-2m--1360.153160mECoROrissa, Odisha
54SBPYSambalpur City  14:30-14:32-2m--1369.024161mECoRSambalpur, Odisha
55SBPDSambalpur RoadX  14:43-14:45-2m11373.51161mECoRSambalpur, Odisha
56SBPSambalpur Junction (3)15:50-16:10-20m11375.039159mECoRSambalpur, Odisha
57SSNSason  16:30-16:32-2m--1387.971171mECoRState Highway 10, Odisha
58RGLRengali  16:40-16:42-2m--1397.481208mECoRState Highway 10, Odisha
59LPGLapanga  16:50-16:52-2m--1408.267215mECoRJharsuguda, Odisha
60BXQBrundamalX  17:00-17:02-2m--1417.08209mECoRJharsuguda, Odisha
61JSGJharsuguda Junction (5)  17:50-18:00-10m--1423.757236mSERJharsuguda, Odisha
62DTVDhutra  18:09-18:10-1m--1432.447240mSERJharsuguda, Odisha
63PNPL•Panpali•  18:17-18:18-1m--1437.856258mSERJharsuguda, Odisha
64BEHBagdihi (3)X  18:25-18:26-1m--1444.454254mSERState Highway 24 PH: 06640-286227, Odisha
65DIHDharuadihi  18:33-18:34-1m--1450.664258mSERSH 24, Odisha
66BMBBamra (3)  18:43-18:44-1m--1460.256259mSERBamra PH : 06642-229268, Odisha
67TGMTangarmundaX  18:53-18:54-1m--1468.758264mSERSundargarh, Odisha
68GPHGarpos (3)  19:02-19:03-1m--1476.447278mSERSundargarh, Odisha
69SOGRSogra  19:09-19:10-1m--1481.155293mSERState Highway 10, Odisha
70SXNSonakhan  19:17-19:18-1m--1487.655249mSERSundargarh, Odisha
71GPRaj Gangpur (3)X  19:26-19:27-1m--1494.955237mSERRaj Ganpur, Odisha
72KXNKanshbahalX  19:37-19:38-1m--1504.147220mSERSundargarh, Odisha
73KLGKalunga  19:47-19:48-1m--1511.250203mSERSundargarh, Odisha
74PPOPanposh (2)  19:57-19:58-1m--1518.713190mSERRourkela, Odisha
75ROURourkela Junction (5)  20:25--21524.7-198mSERRourkela, Odisha
Scroll to Top
Scroll to Bottom